Time,TemperatureF,DewpointF,PressureIn,WindDirection,WindDirectionDegrees,WindSpeedMPH,WindSpeedGustMPH,Humidity,HourlyPrecipIn,Conditions,Clouds,dailyrainin,SolarRadiationWatts/m^2,SoftwareType,DateUTC
2013-11-02 00:02:00,44.2,40.0,29.87,NW,307,0.0,2.0,85,0.00,OVC,OVC,0.00,0.0,WeatherDisplay:10.37,2013-11-02 05:02:00,
2013-11-02 00:07:00,44.2,40.0,29.87,WSW,244,1.0,4.0,85,0.00,OVC,OVC,0.00,0.0,WeatherDisplay:10.37,2013-11-02 05:07:00,
2013-11-02 00:12:00,44.3,40.1,29.88,West,268,1.0,7.0,85,0.00,OVC,OVC,0.00,0.0,WeatherDisplay:10.37,2013-11-02 05:12:00,
2013-11-02 00:17:00,44.4,40.2,29.88,WNW,292,1.0,4.0,85,0.00,OVC,OVC,0.00,0.0,WeatherDisplay:10.37,2013-11-02 05:17:00,
2013-11-02 00:22:00,44.5,40.3,29.88,SW,219,1.0,4.0,85,0.00,OVC,OVC,0.00,0.0,WeatherDisplay:10.37,2013-11-02 05:22:00,
2013-11-02 00:27:00,44.7,40.5,29.88,West,281,1.3,8.1,85,0.00,OVC,,0.00,0.0,WeatherDisplay:10.37,2013-11-02 05:27:00,
2013-11-02 00:32:00,44.9,40.6,29.88,West,265,1.0,7.0,85,0.00,OVC,OVC,0.00,0.0,WeatherDisplay:10.37,2013-11-02 05:32:00,
2013-11-02 00:37:00,45.0,40.8,29.88,West,280,1.0,4.0,85,0.00,OVC,OVC,0.00,0.0,WeatherDisplay:10.37,2013-11-02 05:37:00,
2013-11-02 00:42:00,45.1,40.6,29.88,West,262,1.0,7.0,84,0.00,OVC,OVC,0.00,0.0,WeatherDisplay:10.37,2013-11-02 05:42:00,
2013-11-02 00:47:00,45.2,40.7,29.89,WSW,249,2.0,9.0,84,0.00,OVC,OVC,0.00,0.0,WeatherDisplay:10.37,2013-11-02 05:47:00,
2013-11-02 00:52:00,45.2,40.7,29.89,WSW,242,2.0,5.0,84,0.00,OVC,OVC,0.00,0.0,WeatherDisplay:10.37,2013-11-02 05:52:00,
2013-11-02 00:57:00,45.3,40.7,29.89,WSW,240,2.0,4.0,84,0.00,OVC,OVC,0.00,0.0,WeatherDisplay:10.37,2013-11-02 05:57:00,
2013-11-02 01:02:00,45.3,40.7,29.89,West,279,1.0,6.0,84,0.00,OVC,OVC,0.00,0.0,WeatherDisplay:10.37,2013-11-02 06:02:00,
2013-11-02 01:07:00,45.2,40.7,29.89,WNW,283,0.0,4.0,84,0.00,OVC,OVC,0.00,0.0,WeatherDisplay:10.37,2013-11-02 06:07:00,
2013-11-02 01:12:00,45.1,40.6,29.89,SW,216,1.0,5.0,84,0.00,OVC,OVC,0.00,0.0,WeatherDisplay:10.37,2013-11-02 06:12:00,
2013-11-02 01:17:00,45.1,40.6,29.89,WSW,255,1.0,7.0,84,0.00,OVC,OVC,0.00,0.0,WeatherDisplay:10.37,2013-11-02 06:17:00,
2013-11-02 01:22:00,45.1,40.6,29.90,WSW,258,0.4,9.2,84,0.00,OVC,,0.00,0.0,WeatherDisplay:10.37,2013-11-02 06:22:00,
2013-11-02 01:27:00,45.0,40.5,29.90,West,261,1.0,9.0,84,0.00,OVC,OVC,0.00,0.0,WeatherDisplay:10.37,2013-11-02 06:27:00,
2013-11-02 01:32:00,45.0,40.5,29.90,West,264,1.0,8.0,84,0.00,OVC,OVC,0.00,0.0,WeatherDisplay:10.37,2013-11-02 06:32:00,
2013-11-02 01:37:00,45.0,40.5,29.91,SW,222,1.4,3.5,84,0.00,OVC,,0.00,0.0,WeatherDisplay:10.37,2013-11-02 06:37:00,
2013-11-02 01:42:00,44.9,40.4,29.91,SW,222,0.7,2.0,84,0.00,OVC,,0.00,0.0,WeatherDisplay:10.37,2013-11-02 06:42:00,
2013-11-02 01:47:00,44.9,40.4,29.91,SW,222,0.0,1.2,84,0.00,OVC,,0.00,0.0,WeatherDisplay:10.37,2013-11-02 06:47:00,
2013-11-02 01:52:00,44.9,40.4,29.90,WNW,293,2.4,4.6,84,0.00,OVC,,0.00,0.0,WeatherDisplay:10.37,2013-11-02 06:52:00,
2013-11-02 01:58:00,44.8,40.3,29.91,WNW,282,0.5,2.3,84,0.00,OVC,,0.00,0.0,WeatherDisplay:10.37,2013-11-02 06:58:00,
2013-11-02 02:03:00,44.8,40.3,29.91,SSE,164,1.0,3.5,84,0.00,OVC,,0.00,0.0,WeatherDisplay:10.37,2013-11-02 07:03:00,
2013-11-02 02:08:00,44.7,40.2,29.91,WNW,292,0.5,3.5,84,0.00,OVC,,0.00,0.0,WeatherDisplay:10.37,2013-11-02 07:08:00,
2013-11-02 02:13:00,44.6,40.1,29.91,NW,313,0.0,3.5,84,0.00,OVC,,0.00,0.0,WeatherDisplay:10.37,2013-11-02 07:13:00,
2013-11-02 02:19:00,44.6,40.1,29.91,WNW,286,0.5,3.5,84,0.00,OVC,,0.00,0.0,WeatherDisplay:10.37,2013-11-02 07:19:00,
2013-11-02 02:24:00,44.6,40.1,29.92,WSW,252,1.8,3.5,84,0.00,OVC,,0.00,0.0,WeatherDisplay:10.37,2013-11-02 07:24:00,
2013-11-02 02:29:00,44.6,40.1,29.92,West,281,1.3,3.5,84,0.00,OVC,,0.00,0.0,WeatherDisplay:10.37,2013-11-02 07:29:00,
2013-11-02 02:34:00,44.6,40.1,29.92,WSW,256,0.0,3.5,84,0.00,OVC,,0.00,0.0,WeatherDisplay:10.37,2013-11-02 07:34:00,
2013-11-02 02:40:00,44.6,40.1,29.92,West,280,3.7,9.2,84,0.00,OVC,,0.00,0.0,WeatherDisplay:10.37,2013-11-02 07:40:00,
2013-11-02 02:45:00,44.6,40.1,29.92,NW,315,1.0,3.5,84,0.00,OVC,,0.00,0.0,WeatherDisplay:10.37,2013-11-02 07:45:00,
2013-11-02 02:50:00,44.6,40.1,29.92,West,273,2.6,5.8,84,0.00,OVC,,0.00,0.0,WeatherDisplay:10.37,2013-11-02 07:50:00,
2013-11-02 02:55:00,44.7,39.9,29.93,West,263,0.6,5.8,83,0.00,OVC,,0.00,0.0,WeatherDisplay:10.37,2013-11-02 07:55:00,
2013-11-02 03:01:00,44.7,39.9,29.93,WSW,248,1.5,3.5,83,0.00,OVC,,0.00,0.0,WeatherDisplay:10.37,2013-11-02 08:01:00,
2013-11-02 03:06:00,44.7,39.9,29.93,WNW,299,0.6,3.5,83,0.00,OVC,,0.00,0.0,WeatherDisplay:10.37,2013-11-02 08:06:00,
2013-11-02 03:11:00,44.7,39.9,29.93,NW,325,2.7,5.8,83,0.00,OVC,,0.00,0.0,WeatherDisplay:10.37,2013-11-02 08:11:00,
2013-11-02 03:17:00,44.7,39.9,29.94,WNW,290,3.1,5.8,83,0.00,OVC,,0.00,0.0,WeatherDisplay:10.37,2013-11-02 08:17:00,
2013-11-02 03:22:00,44.7,39.9,29.94,WNW,285,1.0,5.0,83,0.00,OVC,OVC,0.00,0.0,WeatherDisplay:10.37,2013-11-02 08:22:00,
2013-11-02 03:27:00,44.7,39.9,29.94,West,281,1.0,9.0,83,0.00,OVC,OVC,0.00,0.0,WeatherDisplay:10.37,2013-11-02 08:27:00,
2013-11-02 03:32:00,44.6,39.8,29.94,WNW,293,2.0,9.0,83,0.00,OVC,OVC,0.00,0.0,WeatherDisplay:10.37,2013-11-02 08:32:00,
2013-11-02 03:37:00,44.6,39.8,29.94,WNW,282,3.0,5.0,83,0.00,OVC,OVC,0.00,0.0,WeatherDisplay:10.37,2013-11-02 08:37:00,
2013-11-02 03:42:00,44.6,39.8,29.94,WNW,284,1.0,10.0,83,0.00,OVC,OVC,0.00,0.0,WeatherDisplay:10.37,2013-11-02 08:42:00,
2013-11-02 03:47:00,44.5,39.7,29.94,NW,316,0.1,2.3,83,0.00,OVC,,0.00,0.0,WeatherDisplay:10.37,2013-11-02 08:47:00,
2013-11-02 03:52:00,44.4,39.6,29.94,WNW,300,1.0,8.0,83,0.00,OVC,OVC,0.00,0.0,WeatherDisplay:10.37,2013-11-02 08:52:00,
2013-11-02 03:57:00,44.3,39.5,29.94,West,272,0.0,4.0,83,0.00,OVC,OVC,0.00,0.0,WeatherDisplay:10.37,2013-11-02 08:57:00,
2013-11-02 04:02:00,44.2,39.4,29.94,West,263,2.0,6.0,83,0.00,BKN,BKN,0.00,0.0,WeatherDisplay:10.37,2013-11-02 09:02:00,
2013-11-02 04:07:00,44.1,39.3,29.95,West,276,0.0,3.0,83,0.00,BKN,BKN,0.00,0.0,WeatherDisplay:10.37,2013-11-02 09:07:00,
2013-11-02 04:12:00,43.9,39.4,29.95,WNW,290,1.0,6.0,84,0.00,BKN,BKN,0.00,0.0,WeatherDisplay:10.37,2013-11-02 09:12:00,
2013-11-02 04:17:00,43.8,39.3,29.95,WNW,299,0.0,1.0,84,0.00,BKN,BKN,0.00,0.0,WeatherDisplay:10.37,2013-11-02 09:17:00,
2013-11-02 04:22:00,43.6,39.1,29.95,WNW,286,2.4,3.5,84,0.00,BKN,,0.00,0.0,WeatherDisplay:10.37,2013-11-02 09:22:00,
2013-11-02 04:27:00,43.4,39.2,29.95,West,264,2.0,5.0,85,0.00,BKN,BKN,0.00,0.0,WeatherDisplay:10.37,2013-11-02 09:27:00,
2013-11-02 04:32:00,43.3,39.1,29.96,WSW,256,1.0,8.0,85,0.00,BKN,BKN,0.00,0.0,WeatherDisplay:10.37,2013-11-02 09:32:00,
2013-11-02 04:37:00,43.3,39.1,29.96,WNW,303,1.0,6.0,85,0.00,BKN,BKN,0.00,0.0,WeatherDisplay:10.37,2013-11-02 09:37:00,
2013-11-02 04:42:00,43.3,39.4,29.96,NNW,334,0.0,4.0,86,0.00,BKN,BKN,0.00,0.0,WeatherDisplay:10.37,2013-11-02 09:42:00,
2013-11-02 04:47:00,43.3,39.4,29.96,NW,316,2.0,6.0,86,0.00,BKN,BKN,0.00,0.0,WeatherDisplay:10.37,2013-11-02 09:47:00,
2013-11-02 04:52:00,43.3,39.4,29.97,WNW,300,1.0,4.0,86,0.00,BKN,BKN,0.00,0.0,WeatherDisplay:10.37,2013-11-02 09:52:00,
2013-11-02 04:57:00,43.3,39.4,29.97,West,279,2.0,5.0,86,0.00,BKN,BKN,0.00,0.0,WeatherDisplay:10.37,2013-11-02 09:57:00,
2013-11-02 05:02:00,43.3,39.4,29.97,West,279,1.0,4.0,86,0.00,OVC,OVC,0.00,0.0,WeatherDisplay:10.37,2013-11-02 10:02:00,
2013-11-02 05:07:00,43.3,39.4,29.97,WNW,291,2.0,7.0,86,0.00,OVC,OVC,0.00,0.0,WeatherDisplay:10.37,2013-11-02 10:07:00,
2013-11-02 05:12:00,43.3,39.4,29.98,North,10,0.0,5.0,86,0.00,OVC,OVC,0.00,0.0,WeatherDisplay:10.37,2013-11-02 10:12:00,
2013-11-02 05:17:00,43.3,39.4,29.98,South,178,0.8,1.2,86,0.00,OVC,,0.00,0.0,WeatherDisplay:10.37,2013-11-02 10:17:00,
2013-11-02 05:22:00,43.3,39.4,29.98,SW,221,2.0,7.0,86,0.00,OVC,OVC,0.00,0.0,WeatherDisplay:10.37,2013-11-02 10:22:00,
2013-11-02 05:27:00,43.3,39.4,29.98,West,272,1.0,6.0,86,0.00,OVC,OVC,0.00,0.0,WeatherDisplay:10.37,2013-11-02 10:27:00,
2013-11-02 05:32:00,43.3,39.4,29.99,WNW,292,1.0,9.0,86,0.00,OVC,OVC,0.00,0.0,WeatherDisplay:10.37,2013-11-02 10:32:00,
2013-11-02 05:37:00,43.4,39.5,29.98,WNW,299,1.0,5.0,86,0.00,OVC,OVC,0.00,0.0,WeatherDisplay:10.37,2013-11-02 10:37:00,
2013-11-02 05:42:00,43.4,39.5,29.99,NW,323,1.0,5.0,86,0.00,OVC,OVC,0.00,0.0,WeatherDisplay:10.37,2013-11-02 10:42:00,
2013-11-02 05:47:00,43.4,39.5,29.99,NNW,331,1.0,4.0,86,0.00,OVC,OVC,0.00,0.0,WeatherDisplay:10.37,2013-11-02 10:47:00,
2013-11-02 05:52:00,43.4,39.5,29.99,NW,315,0.0,4.0,86,0.00,OVC,OVC,0.00,0.0,WeatherDisplay:10.37,2013-11-02 10:52:00,
2013-11-02 05:57:00,43.4,39.5,30.00,NW,309,0.0,4.0,86,0.00,OVC,OVC,0.00,0.0,WeatherDisplay:10.37,2013-11-02 10:57:00,
2013-11-02 06:02:00,43.4,39.5,30.00,WNW,287,2.0,8.0,86,0.00,OVC,OVC,0.00,0.0,WeatherDisplay:10.37,2013-11-02 11:02:00,
2013-11-02 06:07:00,43.4,39.5,30.00,WNW,288,0.0,3.0,86,0.00,OVC,OVC,0.00,0.0,WeatherDisplay:10.37,2013-11-02 11:07:00,
2013-11-02 06:12:00,43.4,39.5,30.00,West,270,0.0,4.0,86,0.00,OVC,OVC,0.00,0.0,WeatherDisplay:10.37,2013-11-02 11:12:00,
2013-11-02 06:17:00,43.4,39.5,30.00,West,261,2.0,6.0,86,0.00,OVC,OVC,0.00,0.0,WeatherDisplay:10.37,2013-11-02 11:17:00,
2013-11-02 06:22:00,43.3,39.4,30.01,West,275,1.0,7.0,86,0.00,OVC,OVC,0.00,0.0,WeatherDisplay:10.37,2013-11-02 11:22:00,
2013-11-02 06:27:00,43.4,39.5,30.01,West,272,1.0,4.0,86,0.00,OVC,OVC,0.00,0.0,WeatherDisplay:10.37,2013-11-02 11:27:00,
2013-11-02 06:32:00,43.3,39.4,30.01,WNW,298,0.0,9.0,86,0.00,OVC,OVC,0.00,0.0,WeatherDisplay:10.37,2013-11-02 11:32:00,
2013-11-02 06:37:00,43.3,39.4,30.01,NW,306,1.0,4.0,86,0.00,OVC,OVC,0.00,0.0,WeatherDisplay:10.37,2013-11-02 11:37:00,
2013-11-02 06:42:00,43.4,39.5,30.02,NW,305,0.0,3.0,86,0.00,OVC,OVC,0.00,0.0,WeatherDisplay:10.37,2013-11-02 11:42:00,
2013-11-02 06:47:00,43.4,39.5,30.02,West,272,2.0,3.5,86,0.00,OVC,,0.00,0.0,WeatherDisplay:10.37,2013-11-02 11:47:00,
2013-11-02 06:52:00,43.4,39.5,30.02,West,271,1.0,2.0,86,0.00,OVC,OVC,0.00,0.0,WeatherDisplay:10.37,2013-11-02 11:52:00,
2013-11-02 06:57:00,43.4,39.5,30.02,NW,307,1.0,5.0,86,0.00,OVC,OVC,0.00,0.0,WeatherDisplay:10.37,2013-11-02 11:57:00,
2013-11-02 07:02:00,43.4,39.5,30.02,WNW,283,2.0,5.0,86,0.00,OVC,OVC,0.00,0.0,WeatherDisplay:10.37,2013-11-02 12:02:00,
2013-11-02 07:07:00,43.4,39.5,30.02,West,275,0.0,7.0,86,0.00,OVC,OVC,0.00,0.0,WeatherDisplay:10.37,2013-11-02 12:07:00,
2013-11-02 07:12:00,43.5,39.6,30.03,NW,324,3.0,6.0,86,0.00,OVC,OVC,0.00,0.0,WeatherDisplay:10.37,2013-11-02 12:12:00,
2013-11-02 07:17:00,43.5,39.6,30.03,NNE,27,0.0,3.0,86,0.00,OVC,OVC,0.00,0.0,WeatherDisplay:10.37,2013-11-02 12:17:00,
2013-11-02 07:22:00,43.4,39.5,30.03,NNE,32,0.0,0.0,86,0.00,OVC,,0.00,0.0,WeatherDisplay:10.37,2013-11-02 12:22:00,
2013-11-02 07:27:00,43.4,39.5,30.03,ENE,71,1.0,3.0,86,0.00,OVC,OVC,0.00,0.0,WeatherDisplay:10.37,2013-11-02 12:27:00,
2013-11-02 07:32:00,43.4,39.5,30.04,ESE,112,0.0,2.0,86,0.00,OVC,OVC,0.00,0.0,WeatherDisplay:10.37,2013-11-02 12:32:00,
2013-11-02 07:37:00,43.3,39.4,30.04,SW,226,1.0,4.0,86,0.00,OVC,OVC,0.00,0.0,WeatherDisplay:10.37,2013-11-02 12:37:00,
2013-11-02 07:42:00,43.2,39.3,30.04,WSW,242,2.0,8.0,86,0.00,OVC,OVC,0.00,0.0,WeatherDisplay:10.37,2013-11-02 12:42:00,
2013-11-02 07:47:00,43.1,39.2,30.04,West,276,0.0,6.0,86,0.00,OVC,OVC,0.00,0.0,WeatherDisplay:10.37,2013-11-02 12:47:00,
2013-11-02 07:52:00,43.1,39.2,30.04,WNW,288,0.0,10.0,86,0.00,OVC,OVC,0.00,0.0,WeatherDisplay:10.37,2013-11-02 12:52:00,
2013-11-02 07:57:00,43.0,39.1,30.05,WNW,288,0.0,10.0,86,0.00,OVC,OVC,0.00,0.0,WeatherDisplay:10.37,2013-11-02 12:57:00,
2013-11-02 08:02:00,42.9,39.0,30.05,WNW,286,2.0,7.0,86,0.00,BKN,BKN,0.00,7.0,WeatherDisplay:10.37,2013-11-02 13:02:00,
2013-11-02 08:07:00,42.9,39.0,30.05,West,269,2.0,5.0,86,0.00,BKN,BKN,0.00,7.0,WeatherDisplay:10.37,2013-11-02 13:07:00,
2013-11-02 08:12:00,42.9,39.0,30.05,West,264,1.0,9.0,86,0.00,BKN,BKN,0.00,12.0,WeatherDisplay:10.37,2013-11-02 13:12:00,
2013-11-02 08:17:00,42.9,39.0,30.05,SW,215,2.7,3.5,86,0.00,BKN,,0.00,14.0,WeatherDisplay:10.37,2013-11-02 13:17:00,
2013-11-02 08:22:00,42.9,39.0,30.05,West,267,2.0,6.0,86,0.00,BKN,BKN,0.00,16.0,WeatherDisplay:10.37,2013-11-02 13:22:00,
2013-11-02 08:27:00,43.0,39.1,30.05,West,272,1.0,6.0,86,0.00,BKN,BKN,0.00,21.0,WeatherDisplay:10.37,2013-11-02 13:27:00,
2013-11-02 08:32:00,43.0,39.1,30.05,West,274,1.0,8.0,86,0.00,BKN,BKN,0.00,21.0,WeatherDisplay:10.37,2013-11-02 13:32:00,
2013-11-02 08:37:00,43.0,39.1,30.05,WNW,285,1.0,7.0,86,0.00,BKN,BKN,0.00,28.0,WeatherDisplay:10.37,2013-11-02 13:37:00,
2013-11-02 08:42:00,43.1,39.2,30.06,NW,304,0.0,4.0,86,0.00,BKN,BKN,0.00,32.0,WeatherDisplay:10.37,2013-11-02 13:42:00,
2013-11-02 08:47:00,43.1,39.2,30.07,WNW,291,3.0,10.0,86,0.00,BKN,BKN,0.00,46.0,WeatherDisplay:10.37,2013-11-02 13:47:00,
2013-11-02 08:52:00,43.2,39.3,30.07,WNW,284,1.0,7.0,86,0.00,BKN,BKN,0.00,46.0,WeatherDisplay:10.37,2013-11-02 13:52:00,
2013-11-02 08:57:00,43.3,39.1,30.07,WNW,289,2.0,7.0,85,0.00,BKN,BKN,0.00,49.0,WeatherDisplay:10.37,2013-11-02 13:57:00,
2013-11-02 09:02:00,43.3,39.1,30.08,WNW,295,1.0,8.0,85,0.00,BKN,BKN,0.00,32.0,WeatherDisplay:10.37,2013-11-02 14:02:00,
2013-11-02 09:07:00,43.4,39.2,30.08,WNW,286,2.0,6.0,85,0.00,BKN,BKN,0.00,44.0,WeatherDisplay:10.37,2013-11-02 14:07:00,
2013-11-02 09:12:00,43.4,39.2,30.08,NW,323,4.6,5.8,85,0.00,BKN,,0.00,47.0,WeatherDisplay:10.37,2013-11-02 14:12:00,
2013-11-02 09:17:00,43.5,39.0,30.08,WNW,291,2.0,13.0,84,0.00,BKN,BKN,0.00,42.0,WeatherDisplay:10.37,2013-11-02 14:17:00,
2013-11-02 09:22:00,43.7,39.2,30.08,WNW,289,2.0,12.0,84,0.00,BKN,BKN,0.00,46.0,WeatherDisplay:10.37,2013-11-02 14:22:00,
2013-11-02 09:27:00,43.9,39.1,30.09,WNW,299,1.0,8.0,83,0.00,BKN,BKN,0.00,46.0,WeatherDisplay:10.37,2013-11-02 14:27:00,
2013-11-02 09:32:00,44.0,39.2,30.09,WNW,295,2.0,8.0,83,0.00,BKN,BKN,0.00,46.0,WeatherDisplay:10.37,2013-11-02 14:32:00,
2013-11-02 09:37:00,44.1,39.3,30.09,WNW,297,2.0,6.0,83,0.00,BKN,BKN,0.00,49.0,WeatherDisplay:10.37,2013-11-02 14:37:00,
2013-11-02 09:42:00,44.3,39.2,30.09,WNW,283,2.0,9.0,82,0.00,BKN,BKN,0.00,51.0,WeatherDisplay:10.37,2013-11-02 14:42:00,
2013-11-02 09:47:00,44.3,38.8,30.09,WNW,288,1.0,8.0,81,0.00,BKN,BKN,0.00,37.0,WeatherDisplay:10.37,2013-11-02 14:47:00,
2013-11-02 09:52:00,44.3,38.5,30.10,West,277,5.0,12.0,80,0.00,BKN,BKN,0.00,49.0,WeatherDisplay:10.37,2013-11-02 14:52:00,
2013-11-02 09:57:00,44.6,38.8,30.10,West,277,5.0,8.0,80,0.00,BKN,BKN,0.00,74.0,WeatherDisplay:10.37,2013-11-02 14:57:00,
2013-11-02 10:02:00,44.8,38.3,30.10,West,278,3.0,10.0,78,0.00,BKN,BKN,0.00,63.0,WeatherDisplay:10.37,2013-11-02 15:02:00,
2013-11-02 10:07:00,44.8,38.7,30.10,West,279,2.0,9.0,79,0.00,BKN,BKN,0.00,60.0,WeatherDisplay:10.37,2013-11-02 15:07:00,
2013-11-02 10:12:00,44.8,38.4,30.09,WNW,293,1.0,8.0,78,0.00,BKN,BKN,0.00,60.0,WeatherDisplay:10.37,2013-11-02 15:12:00,
2013-11-02 10:17:00,44.7,38.3,30.09,West,262,1.0,8.0,78,0.00,BKN,BKN,0.00,74.0,WeatherDisplay:10.37,2013-11-02 15:17:00,
2013-11-02 10:22:00,44.7,37.9,30.10,SSW,213,3.0,9.0,77,0.00,BKN,BKN,0.00,72.0,WeatherDisplay:10.37,2013-11-02 15:22:00,
2013-11-02 10:27:00,44.9,38.1,30.10,West,264,1.0,8.0,77,0.00,BKN,BKN,0.00,114.0,WeatherDisplay:10.37,2013-11-02 15:27:00,
2013-11-02 10:32:00,45.3,38.5,30.10,West,278,2.0,12.0,77,0.00,BKN,BKN,0.00,81.0,WeatherDisplay:10.37,2013-11-02 15:32:00,
2013-11-02 10:37:00,45.4,37.9,30.10,West,259,5.0,10.0,75,0.00,BKN,BKN,0.00,325.0,WeatherDisplay:10.37,2013-11-02 15:37:00,
2013-11-02 10:42:00,45.8,38.0,30.10,WNW,294,2.9,9.0,74,0.00,BKN,,0.00,452.0,WeatherDisplay:10.37,2013-11-02 15:42:00,
2013-11-02 10:47:00,46.2,38.3,30.10,WNW,301,2.0,8.0,74,0.00,BKN,BKN,0.00,487.0,WeatherDisplay:10.37,2013-11-02 15:47:00,
2013-11-02 10:52:00,46.6,38.1,30.10,West,272,3.0,7.0,72,0.00,BKN,BKN,0.00,81.0,WeatherDisplay:10.37,2013-11-02 15:52:00,
2013-11-02 10:57:00,45.9,37.7,30.10,West,269,2.0,6.0,73,0.00,BKN,BKN,0.00,202.0,WeatherDisplay:10.37,2013-11-02 15:57:00,
2013-11-02 11:02:00,46.0,37.8,30.11,WNW,285,2.0,9.0,73,0.00,SCT,SCT,0.00,186.0,WeatherDisplay:10.37,2013-11-02 16:02:00,
2013-11-02 11:07:00,46.2,37.3,30.11,West,278,3.0,9.0,71,0.00,SCT,SCT,0.00,118.0,WeatherDisplay:10.37,2013-11-02 16:07:00,
2013-11-02 11:12:00,46.5,37.2,30.11,West,273,1.0,8.0,70,0.00,SCT,SCT,0.00,69.0,WeatherDisplay:10.37,2013-11-02 16:12:00,
2013-11-02 11:17:00,46.6,37.3,30.11,West,275,2.0,7.0,70,0.00,SCT,SCT,0.00,98.0,WeatherDisplay:10.37,2013-11-02 16:17:00,
2013-11-02 11:22:00,46.5,37.3,30.11,West,276,2.0,6.0,70,0.00,SCT,SCT,0.00,60.0,WeatherDisplay:10.37,2013-11-02 16:22:00,
2013-11-02 11:27:00,46.5,37.3,30.11,WSW,250,3.0,8.0,70,0.00,SCT,SCT,0.00,69.0,WeatherDisplay:10.37,2013-11-02 16:27:00,
2013-11-02 11:32:00,46.9,37.6,30.11,WSW,240,2.0,8.0,70,0.00,SCT,SCT,0.00,76.0,WeatherDisplay:10.37,2013-11-02 16:32:00,
2013-11-02 11:37:00,47.2,37.5,30.11,NNE,32,2.8,8.1,69,0.00,SCT,,0.00,72.0,WeatherDisplay:10.37,2013-11-02 16:37:00,
2013-11-02 11:42:00,47.1,37.4,30.11,NE,34,2.0,8.0,69,0.00,SCT,SCT,0.00,79.0,WeatherDisplay:10.37,2013-11-02 16:42:00,
2013-11-02 11:47:00,47.1,37.1,30.11,NNE,32,3.0,9.0,68,0.00,SCT,SCT,0.00,74.0,WeatherDisplay:10.37,2013-11-02 16:47:00,
2013-11-02 11:52:00,47.0,37.4,30.11,NNE,32,1.0,9.0,69,0.00,SCT,SCT,0.00,77.0,WeatherDisplay:10.37,2013-11-02 16:52:00,
2013-11-02 11:57:00,47.7,37.3,30.11,NNE,32,1.0,1.0,67,0.00,SCT,SCT,0.00,74.0,WeatherDisplay:10.37,2013-11-02 16:57:00,
2013-11-02 12:02:00,47.8,36.2,30.11,NNE,32,3.0,6.0,64,0.00,SCT,SCT,0.00,104.0,WeatherDisplay:10.37,2013-11-02 17:02:00,
2013-11-02 12:07:00,48.1,36.5,30.12,NNE,32,3.0,9.0,64,0.00,SCT,SCT,0.00,79.0,WeatherDisplay:10.37,2013-11-02 17:07:00,
2013-11-02 12:12:00,48.5,36.5,30.12,NNE,32,3.8,5.8,63,0.00,SCT,,0.00,67.0,WeatherDisplay:10.37,2013-11-02 17:12:00,
2013-11-02 12:17:00,48.2,35.8,30.12,NNE,32,0.0,5.0,62,0.00,SCT,SCT,0.00,183.0,WeatherDisplay:10.37,2013-11-02 17:17:00,
2013-11-02 12:22:00,48.3,35.8,30.12,NNE,32,1.0,6.0,62,0.00,SCT,SCT,0.00,90.0,WeatherDisplay:10.37,2013-11-02 17:22:00,
2013-11-02 12:27:00,49.2,35.9,30.12,NNE,32,2.0,8.0,60,0.00,SCT,SCT,0.00,237.0,WeatherDisplay:10.37,2013-11-02 17:27:00,
2013-11-02 12:32:00,49.3,35.5,30.12,NNE,32,1.0,6.0,59,0.00,SCT,SCT,0.00,176.0,WeatherDisplay:10.37,2013-11-02 17:32:00,
2013-11-02 12:37:00,49.8,36.0,30.12,NNE,32,3.0,6.0,59,0.00,SCT,SCT,0.00,116.0,WeatherDisplay:10.37,2013-11-02 17:37:00,
2013-11-02 12:42:00,49.9,35.3,30.12,NNE,32,3.0,8.0,57,0.00,SCT,SCT,0.00,543.0,WeatherDisplay:10.37,2013-11-02 17:42:00,
2013-11-02 12:47:00,49.8,35.6,30.12,NNE,31,3.0,9.0,58,0.00,SCT,SCT,0.00,469.0,WeatherDisplay:10.37,2013-11-02 17:47:00,
2013-11-02 12:52:00,49.9,35.2,30.12,NNE,31,1.0,10.0,57,0.00,SCT,SCT,0.00,612.0,WeatherDisplay:10.37,2013-11-02 17:52:00,
2013-11-02 12:57:00,50.2,34.2,30.12,NNE,31,2.0,6.0,54,0.00,SCT,SCT,0.00,622.0,WeatherDisplay:10.37,2013-11-02 17:57:00,
2013-11-02 13:09:00,50.1,35.4,30.11,NNE,31,0.0,11.5,57,0.00,SCT,,0.00,619.0,WeatherDisplay:10.37,2013-11-02 18:09:00,
2013-11-02 13:15:00,50.6,34.6,30.11,NNE,31,3.6,8.1,54,0.00,SCT,,0.00,598.0,WeatherDisplay:10.37,2013-11-02 18:15:00,
2013-11-02 13:20:00,51.5,34.9,30.11,NNE,31,2.1,10.4,53,0.00,SCT,,0.00,624.0,WeatherDisplay:10.37,2013-11-02 18:20:00,
2013-11-02 13:25:00,51.4,34.3,30.11,NNE,31,3.5,5.8,52,0.00,SCT,,0.00,657.0,WeatherDisplay:10.37,2013-11-02 18:25:00,
2013-11-02 13:30:00,51.1,35.5,30.11,West,275,2.4,9.2,55,0.00,SCT,,0.00,573.0,WeatherDisplay:10.37,2013-11-02 18:30:00,
2013-11-02 13:36:00,51.3,35.7,30.11,SE,128,0.9,2.3,55,0.00,SCT,,0.00,613.0,WeatherDisplay:10.37,2013-11-02 18:36:00,
2013-11-02 13:41:00,51.8,35.7,30.10,West,279,2.1,4.0,54,0.00,SCT,,0.00,584.0,WeatherDisplay:10.37,2013-11-02 18:41:00,
2013-11-02 13:46:00,52.0,33.9,30.10,West,275,4.6,11.5,50,0.00,SCT,,0.00,580.0,WeatherDisplay:10.37,2013-11-02 18:46:00,
2013-11-02 13:51:00,52.1,34.0,30.10,WNW,286,5.1,10.4,50,0.00,SCT,,0.00,503.0,WeatherDisplay:10.37,2013-11-02 18:51:00,
2013-11-02 13:57:00,52.3,34.2,30.10,WNW,288,1.0,5.0,50,0.00,SCT,SCT,0.00,573.0,WeatherDisplay:10.37,2013-11-02 18:57:00,
2013-11-02 14:02:00,52.0,33.4,30.10,NNW,331,3.0,8.0,49,0.00,SCT,SCT,0.00,580.0,WeatherDisplay:10.37,2013-11-02 19:02:00,
2013-11-02 14:07:00,52.2,35.1,30.10,NNW,339,2.0,5.0,52,0.00,SCT,SCT,0.00,564.0,WeatherDisplay:10.37,2013-11-02 19:07:00,
2013-11-02 14:12:00,52.3,34.2,30.10,NW,319,2.0,12.0,50,0.00,SCT,SCT,0.00,550.0,WeatherDisplay:10.37,2013-11-02 19:12:00,
2013-11-02 14:17:00,51.9,32.3,30.10,WNW,291,6.0,12.0,47,0.00,SCT,SCT,0.00,552.0,WeatherDisplay:10.37,2013-11-02 19:17:00,
2013-11-02 14:22:00,52.1,35.0,30.10,West,278,1.0,9.0,52,0.00,SCT,SCT,0.00,541.0,WeatherDisplay:10.37,2013-11-02 19:22:00,
2013-11-02 14:27:00,52.2,34.1,30.10,WSW,250,1.0,8.0,50,0.00,SCT,SCT,0.00,538.0,WeatherDisplay:10.37,2013-11-02 19:27:00,
2013-11-02 14:32:00,52.3,33.7,30.10,SW,230,1.0,7.0,49,0.00,SCT,SCT,0.00,531.0,WeatherDisplay:10.37,2013-11-02 19:32:00,
2013-11-02 14:37:00,52.3,33.7,30.10,West,276,2.3,7.0,49,0.00,SCT,,0.00,534.0,WeatherDisplay:10.37,2013-11-02 19:37:00,
2013-11-02 14:42:00,52.0,33.4,30.10,WSW,253,1.0,10.0,49,0.00,SCT,SCT,0.00,520.0,WeatherDisplay:10.37,2013-11-02 19:42:00,
2013-11-02 14:47:00,52.3,32.6,30.10,WNW,284,3.0,12.0,47,0.00,SCT,SCT,0.00,457.0,WeatherDisplay:10.37,2013-11-02 19:47:00,
2013-11-02 14:52:00,51.7,32.6,30.10,WNW,289,2.0,5.0,48,0.00,SCT,SCT,0.00,158.0,WeatherDisplay:10.37,2013-11-02 19:52:00,
2013-11-02 14:57:00,51.9,32.3,30.10,WNW,297,3.0,9.0,47,0.00,SCT,SCT,0.00,123.0,WeatherDisplay:10.37,2013-11-02 19:57:00,
2013-11-02 15:02:00,51.8,32.7,30.09,West,264,3.0,9.0,48,0.00,SCT,SCT,0.00,62.0,WeatherDisplay:10.37,2013-11-02 20:02:00,
2013-11-02 15:07:00,51.8,31.7,30.10,WSW,254,3.0,14.0,46,0.00,SCT,SCT,0.00,83.0,WeatherDisplay:10.37,2013-11-02 20:07:00,
2013-11-02 15:12:00,51.8,32.2,30.10,West,277,3.0,6.0,47,0.00,SCT,SCT,0.00,54.0,WeatherDisplay:10.37,2013-11-02 20:12:00,
2013-11-02 15:17:00,51.6,32.5,30.10,WNW,292,1.0,6.0,48,0.00,SCT,SCT,0.00,53.0,WeatherDisplay:10.37,2013-11-02 20:17:00,
2013-11-02 15:22:00,51.8,33.2,30.10,WNW,302,1.0,3.0,49,0.00,SCT,SCT,0.00,54.0,WeatherDisplay:10.37,2013-11-02 20:22:00,
2013-11-02 15:27:00,51.9,32.3,30.10,West,281,2.0,8.0,47,0.00,SCT,SCT,0.00,51.0,WeatherDisplay:10.37,2013-11-02 20:27:00,
2013-11-02 15:32:00,51.9,32.3,30.10,WNW,282,3.0,7.0,47,0.00,SCT,SCT,0.00,56.0,WeatherDisplay:10.37,2013-11-02 20:32:00,
2013-11-02 15:37:00,52.1,32.5,30.10,West,279,1.0,6.0,47,0.00,SCT,SCT,0.00,47.0,WeatherDisplay:10.37,2013-11-02 20:37:00,
2013-11-02 15:42:00,52.2,32.6,30.10,West,263,2.0,12.0,47,0.00,SCT,SCT,0.00,49.0,WeatherDisplay:10.37,2013-11-02 20:42:00,
2013-11-02 15:47:00,52.1,31.9,30.10,West,276,5.0,10.0,46,0.00,SCT,SCT,0.00,56.0,WeatherDisplay:10.37,2013-11-02 20:47:00,
2013-11-02 15:52:00,51.9,32.3,30.10,WNW,291,2.0,8.0,47,0.00,SCT,SCT,0.00,40.0,WeatherDisplay:10.37,2013-11-02 20:52:00,
2013-11-02 15:57:00,51.6,32.5,30.10,WSW,256,2.0,5.0,48,0.00,SCT,SCT,0.00,53.0,WeatherDisplay:10.37,2013-11-02 20:57:00,
2013-11-02 16:02:00,51.5,33.5,30.10,SE,129,0.6,2.3,50,0.00,SCT,,0.00,72.0,WeatherDisplay:10.37,2013-11-02 21:02:00,
2013-11-02 16:07:00,51.8,32.2,30.10,NNW,332,1.2,5.0,47,0.00,SCT,,0.00,54.0,WeatherDisplay:10.37,2013-11-02 21:07:00,
2013-11-02 16:12:00,51.9,33.3,30.11,WSW,254,1.1,3.5,49,0.00,SCT,,0.00,56.0,WeatherDisplay:10.37,2013-11-02 21:12:00,
2013-11-02 16:17:00,51.8,33.7,30.11,West,262,0.1,2.3,50,0.00,SCT,,0.00,91.0,WeatherDisplay:10.37,2013-11-02 21:17:00,
2013-11-02 16:23:00,51.8,34.2,30.11,West,274,3.1,3.5,51,0.00,SCT,,0.00,65.0,WeatherDisplay:10.37,2013-11-02 21:23:00,
2013-11-02 16:28:00,51.9,34.3,30.11,South,171,1.2,2.3,51,0.00,SCT,,0.00,67.0,WeatherDisplay:10.37,2013-11-02 21:28:00,
2013-11-02 16:33:00,52.0,33.9,30.11,East,94,1.2,4.0,50,0.00,SCT,,0.00,39.0,WeatherDisplay:10.37,2013-11-02 21:33:00,
2013-11-02 16:39:00,51.7,35.1,30.11,East,82,0.4,3.5,53,0.00,SCT,,0.00,32.0,WeatherDisplay:10.37,2013-11-02 21:39:00,
2013-11-02 16:44:00,51.6,34.5,30.11,NNE,32,0.2,1.2,52,0.00,SCT,,0.00,32.0,WeatherDisplay:10.37,2013-11-02 21:44:00,
2013-11-02 16:49:00,51.3,34.7,30.11,SSE,159,0.6,3.5,53,0.00,SCT,,0.00,32.0,WeatherDisplay:10.37,2013-11-02 21:49:00,
2013-11-02 16:54:00,51.1,35.0,30.11,SW,216,1.7,3.5,54,0.00,SCT,,0.00,32.0,WeatherDisplay:10.37,2013-11-02 21:54:00,
2013-11-02 17:00:00,51.4,33.9,30.11,WSW,257,2.1,6.9,51,0.00,SCT,,0.00,32.0,WeatherDisplay:10.37,2013-11-02 22:00:00,
2013-11-02 17:05:00,51.6,34.0,30.11,West,271,2.1,6.9,51,0.00,SCT,,0.00,23.0,WeatherDisplay:10.37,2013-11-02 22:05:00,
2013-11-02 17:10:00,51.3,34.7,30.11,West,277,2.1,5.8,53,0.00,SCT,,0.00,23.0,WeatherDisplay:10.37,2013-11-02 22:10:00,
2013-11-02 17:15:00,51.1,35.0,30.11,West,278,0.4,1.2,54,0.00,SCT,,0.00,19.0,WeatherDisplay:10.37,2013-11-02 22:15:00,
2013-11-02 17:21:00,50.8,35.2,30.11,WNW,288,0.7,5.0,55,0.00,SCT,,0.00,18.0,WeatherDisplay:10.37,2013-11-02 22:21:00,
2013-11-02 17:26:00,50.7,35.1,30.10,SSE,167,2.6,5.8,55,0.00,SCT,,0.00,23.0,WeatherDisplay:10.37,2013-11-02 22:26:00,
2013-11-02 17:31:00,50.6,35.0,30.10,SSW,207,0.8,3.5,55,0.00,SCT,,0.00,26.0,WeatherDisplay:10.37,2013-11-02 22:31:00,
2013-11-02 17:36:00,50.6,35.0,30.10,WSW,250,0.0,0.0,55,0.00,SCT,,0.00,18.0,WeatherDisplay:10.37,2013-11-02 22:36:00,
2013-11-02 17:42:00,50.2,35.1,30.10,WSW,250,0.6,2.0,56,0.00,SCT,,0.00,14.0,WeatherDisplay:10.37,2013-11-02 22:42:00,
2013-11-02 17:47:00,49.8,35.2,30.11,WSW,250,0.0,2.0,57,0.00,SCT,SCT,0.00,11.0,WeatherDisplay:10.37,2013-11-02 22:47:00,
2013-11-02 17:52:00,49.5,35.3,30.11,WSW,250,0.0,1.0,58,0.00,SCT,SCT,0.00,9.0,WeatherDisplay:10.37,2013-11-02 22:52:00,
2013-11-02 17:57:00,48.8,36.0,30.11,WSW,250,0.0,0.0,61,0.00,SCT,SCT,0.00,7.0,WeatherDisplay:10.37,2013-11-02 22:57:00,
2013-11-02 18:02:00,47.9,35.5,30.11,WSW,250,0.0,0.0,62,0.00,SCT,SCT,0.00,5.0,WeatherDisplay:10.37,2013-11-02 23:02:00,
2013-11-02 18:07:00,47.6,36.0,30.11,WSW,250,0.0,0.0,64,0.00,SCT,SCT,0.00,0.0,WeatherDisplay:10.37,2013-11-02 23:07:00,
2013-11-02 18:12:00,46.9,35.8,30.11,WSW,250,0.0,0.0,65,0.00,SCT,SCT,0.00,0.0,WeatherDisplay:10.37,2013-11-02 23:12:00,
2013-11-02 18:17:00,46.4,36.0,30.11,WSW,250,0.0,0.0,67,0.00,SCT,SCT,0.00,0.0,WeatherDisplay:10.37,2013-11-02 23:17:00,
2013-11-02 18:22:00,45.8,35.8,30.11,WSW,250,0.0,0.0,68,0.00,SCT,SCT,0.00,0.0,WeatherDisplay:10.37,2013-11-02 23:22:00,
2013-11-02 18:27:00,45.3,35.7,30.11,WSW,250,0.0,0.0,69,0.00,SCT,SCT,0.00,0.0,WeatherDisplay:10.37,2013-11-02 23:27:00,
2013-11-02 18:32:00,44.8,36.0,30.11,WSW,250,0.0,0.0,71,0.00,SCT,,0.00,0.0,WeatherDisplay:10.37,2013-11-02 23:32:00,
2013-11-02 18:37:00,44.4,35.9,30.11,WSW,250,0.0,0.0,72,0.00,SCT,SCT,0.00,0.0,WeatherDisplay:10.37,2013-11-02 23:37:00,
2013-11-02 18:42:00,44.3,35.8,30.12,WSW,250,0.0,0.0,72,0.00,SCT,SCT,0.00,0.0,WeatherDisplay:10.37,2013-11-02 23:42:00,
2013-11-02 18:47:00,44.0,35.9,30.12,WSW,250,0.0,0.0,73,0.00,SCT,SCT,0.00,0.0,WeatherDisplay:10.37,2013-11-02 23:47:00,
2013-11-02 18:52:00,43.6,35.6,30.12,WSW,250,0.0,0.0,73,0.00,SCT,SCT,0.00,0.0,WeatherDisplay:10.37,2013-11-02 23:52:00,
2013-11-02 18:57:00,43.6,35.5,30.12,WSW,250,0.0,0.0,73,0.00,SCT,SCT,0.00,0.0,WeatherDisplay:10.37,2013-11-02 23:57:00,
2013-11-02 19:02:00,43.2,35.8,30.12,WSW,250,0.0,0.0,75,0.00,FEW,FEW,0.00,0.0,WeatherDisplay:10.37,2013-11-03 00:02:00,
2013-11-02 19:07:00,42.8,35.8,30.12,WSW,250,0.0,0.0,76,0.00,FEW,,0.00,0.0,WeatherDisplay:10.37,2013-11-03 00:07:00,
2013-11-02 19:12:00,42.5,35.8,30.12,WSW,250,0.0,0.0,77,0.00,FEW,FEW,0.00,0.0,WeatherDisplay:10.37,2013-11-03 00:12:00,
2013-11-02 19:17:00,42.5,35.5,30.12,WSW,250,0.0,0.0,76,0.00,FEW,FEW,0.00,0.0,WeatherDisplay:10.37,2013-11-03 00:17:00,
2013-11-02 19:22:00,42.3,35.6,30.12,WSW,250,0.0,0.0,77,0.00,FEW,FEW,0.00,0.0,WeatherDisplay:10.37,2013-11-03 00:22:00,
2013-11-02 19:27:00,42.3,35.9,30.12,WSW,250,0.0,0.0,78,0.00,FEW,FEW,0.00,0.0,WeatherDisplay:10.37,2013-11-03 00:27:00,
2013-11-02 19:32:00,42.1,35.7,30.12,WSW,250,0.0,0.0,78,0.00,FEW,FEW,0.00,0.0,WeatherDisplay:10.37,2013-11-03 00:32:00,
2013-11-02 19:37:00,41.6,35.9,30.12,WSW,250,0.0,0.0,80,0.00,FEW,FEW,0.00,0.0,WeatherDisplay:10.37,2013-11-03 00:37:00,
2013-11-02 19:42:00,41.7,36.0,30.12,WSW,250,0.0,0.0,80,0.00,FEW,FEW,0.00,0.0,WeatherDisplay:10.37,2013-11-03 00:42:00,
2013-11-02 19:47:00,41.3,35.5,30.12,WSW,250,0.0,0.0,80,0.00,FEW,FEW,0.00,0.0,WeatherDisplay:10.37,2013-11-03 00:47:00,
2013-11-02 19:52:00,41.0,35.6,30.12,WSW,250,0.0,0.0,81,0.00,FEW,FEW,0.00,0.0,WeatherDisplay:10.37,2013-11-03 00:52:00,
2013-11-02 19:57:00,40.6,35.5,30.13,WSW,250,0.0,0.0,82,0.00,FEW,,0.00,0.0,WeatherDisplay:10.37,2013-11-03 00:57:00,
2013-11-02 20:02:00,40.5,35.7,30.12,WSW,250,0.0,0.0,83,0.00,FEW,,0.00,0.0,WeatherDisplay:10.37,2013-11-03 01:02:00,
2013-11-02 20:07:00,40.5,35.4,30.13,WSW,250,0.0,0.0,82,0.00,FEW,,0.00,0.0,WeatherDisplay:10.37,2013-11-03 01:07:00,
2013-11-02 20:12:00,40.2,35.4,30.13,WSW,250,0.0,0.0,83,0.00,FEW,,0.00,0.0,WeatherDisplay:10.37,2013-11-03 01:12:00,
2013-11-02 20:18:00,39.9,35.5,30.13,WSW,250,0.0,0.0,84,0.00,FEW,,0.00,0.0,WeatherDisplay:10.37,2013-11-03 01:18:00,
2013-11-02 20:23:00,39.8,35.4,30.13,WSW,250,0.0,0.0,84,0.00,FEW,,0.00,0.0,WeatherDisplay:10.37,2013-11-03 01:23:00,
2013-11-02 20:28:00,39.8,35.4,30.12,WSW,250,0.0,0.0,84,0.00,FEW,,0.00,0.0,WeatherDisplay:10.37,2013-11-03 01:28:00,
2013-11-02 20:33:00,39.8,35.4,30.12,WSW,250,0.0,0.0,84,0.00,FEW,,0.00,0.0,WeatherDisplay:10.37,2013-11-03 01:33:00,
2013-11-02 20:39:00,39.6,35.5,30.12,WSW,250,0.0,0.0,85,0.00,FEW,,0.00,0.0,WeatherDisplay:10.37,2013-11-03 01:39:00,
2013-11-02 20:44:00,39.2,35.1,30.12,WSW,250,0.0,0.0,85,0.00,FEW,,0.00,0.0,WeatherDisplay:10.37,2013-11-03 01:44:00,
2013-11-02 20:49:00,39.1,35.3,30.12,WSW,250,0.0,0.0,86,0.00,FEW,,0.00,0.0,WeatherDisplay:10.37,2013-11-03 01:49:00,
2013-11-02 20:55:00,39.1,35.3,30.12,WSW,250,0.0,0.0,86,0.00,FEW,,0.00,0.0,WeatherDisplay:10.37,2013-11-03 01:55:00,
2013-11-02 21:00:00,38.9,35.1,30.12,WSW,250,0.0,0.0,86,0.00,FEW,,0.00,0.0,WeatherDisplay:10.37,2013-11-03 02:00:00,
2013-11-02 21:05:00,38.7,35.2,30.12,WSW,250,0.0,0.0,87,0.00,FEW,,0.00,0.0,WeatherDisplay:10.37,2013-11-03 02:05:00,
2013-11-02 21:10:00,38.6,35.1,30.12,WSW,250,0.0,0.0,87,0.00,FEW,,0.00,0.0,WeatherDisplay:10.37,2013-11-03 02:10:00,
2013-11-02 21:16:00,38.2,34.7,30.12,WSW,250,0.0,0.0,87,0.00,FEW,,0.00,0.0,WeatherDisplay:10.37,2013-11-03 02:16:00,
2013-11-02 21:21:00,38.3,35.1,30.12,WSW,250,0.0,0.0,88,0.00,FEW,,0.00,0.0,WeatherDisplay:10.37,2013-11-03 02:21:00,
2013-11-02 21:26:00,38.3,34.8,30.12,WSW,250,0.0,0.0,87,0.00,FEW,,0.00,0.0,WeatherDisplay:10.37,2013-11-03 02:26:00,
2013-11-02 21:31:00,38.1,34.6,30.13,WSW,250,0.0,0.0,87,0.00,FEW,,0.00,0.0,WeatherDisplay:10.37,2013-11-03 02:31:00,
2013-11-02 21:37:00,38.1,34.6,30.12,WSW,250,0.0,0.0,87,0.00,FEW,,0.00,0.0,WeatherDisplay:10.37,2013-11-03 02:37:00,
2013-11-02 21:42:00,38.2,35.0,30.12,WSW,250,0.0,0.0,88,0.00,FEW,FEW,0.00,0.0,WeatherDisplay:10.37,2013-11-03 02:42:00,
2013-11-02 21:47:00,38.3,35.1,30.12,WSW,250,0.0,0.0,88,0.00,FEW,FEW,0.00,0.0,WeatherDisplay:10.37,2013-11-03 02:47:00,
2013-11-02 21:52:00,38.4,34.8,30.13,WSW,250,0.0,0.0,87,0.00,FEW,FEW,0.00,0.0,WeatherDisplay:10.37,2013-11-03 02:52:00,
2013-11-02 21:57:00,38.0,34.8,30.13,WSW,250,0.0,0.0,88,0.00,FEW,FEW,0.00,0.0,WeatherDisplay:10.37,2013-11-03 02:57:00,
2013-11-02 22:02:00,37.9,34.7,30.13,WSW,250,0.0,0.0,88,0.00,FEW,FEW,0.00,0.0,WeatherDisplay:10.37,2013-11-03 03:02:00,
2013-11-02 22:07:00,37.9,34.7,30.13,WSW,250,0.0,0.0,88,0.00,FEW,,0.00,0.0,WeatherDisplay:10.37,2013-11-03 03:07:00,
2013-11-02 22:12:00,38.0,34.8,30.13,WSW,250,0.0,0.0,88,0.00,FEW,FEW,0.00,0.0,WeatherDisplay:10.37,2013-11-03 03:12:00,
2013-11-02 22:17:00,38.0,34.5,30.13,WSW,250,0.0,0.0,87,0.00,FEW,FEW,0.00,0.0,WeatherDisplay:10.37,2013-11-03 03:17:00,
2013-11-02 22:22:00,38.1,34.8,30.13,WSW,250,0.0,0.0,88,0.00,FEW,FEW,0.00,0.0,WeatherDisplay:10.37,2013-11-03 03:22:00,
2013-11-02 22:27:00,38.1,34.6,30.13,WSW,250,0.0,0.0,87,0.00,FEW,,0.00,0.0,WeatherDisplay:10.37,2013-11-03 03:27:00,
2013-11-02 22:32:00,38.1,34.6,30.13,WSW,250,0.0,0.0,87,0.00,FEW,FEW,0.00,0.0,WeatherDisplay:10.37,2013-11-03 03:32:00,
2013-11-02 22:37:00,38.2,34.6,30.13,WSW,250,0.0,0.0,87,0.00,FEW,FEW,0.00,0.0,WeatherDisplay:10.37,2013-11-03 03:37:00,
2013-11-02 22:42:00,38.4,34.6,30.13,WSW,250,0.0,0.0,86,0.00,FEW,FEW,0.00,0.0,WeatherDisplay:10.37,2013-11-03 03:42:00,
2013-11-02 22:47:00,38.7,34.9,30.13,WSW,250,0.0,0.0,86,0.00,FEW,FEW,0.00,0.0,WeatherDisplay:10.37,2013-11-03 03:47:00,
2013-11-02 22:52:00,38.8,34.6,30.13,WSW,250,0.0,0.0,85,0.00,FEW,FEW,0.00,0.0,WeatherDisplay:10.37,2013-11-03 03:52:00,
2013-11-02 22:57:00,38.5,34.4,30.13,WSW,250,0.0,0.0,85,0.00,FEW,FEW,0.00,0.0,WeatherDisplay:10.37,2013-11-03 03:57:00,
2013-11-02 23:01:00,38.3,34.5,30.13,WSW,250,0.0,0.0,86,0.00,FEW,,0.00,0.0,WeatherDisplay:10.37,2013-11-03 04:01:00,
2013-11-02 23:02:00,38.3,34.5,30.13,WSW,250,0.0,0.0,86,0.00,FEW,,0.00,0.0,WeatherDisplay:10.37,2013-11-03 04:02:00,
2013-11-02 23:03:00,38.2,34.4,30.13,WSW,250,0.0,0.0,86,0.00,FEW,,0.00,0.0,WeatherDisplay:10.37,2013-11-03 04:03:00,
2013-11-02 23:09:00,38.0,34.2,30.13,WSW,250,0.0,0.0,86,0.00,FEW,,0.00,0.0,WeatherDisplay:10.37,2013-11-03 04:09:00,
2013-11-02 23:14:00,38.1,34.3,30.13,WSW,250,0.0,0.0,86,0.00,FEW,,0.00,0.0,WeatherDisplay:10.37,2013-11-03 04:14:00,
2013-11-02 23:19:00,38.1,34.3,30.13,WSW,250,0.0,0.0,86,0.00,FEW,,0.00,0.0,WeatherDisplay:10.37,2013-11-03 04:19:00,
2013-11-02 23:24:00,38.0,34.2,30.13,WSW,250,0.0,0.0,86,0.00,FEW,,0.00,0.0,WeatherDisplay:10.37,2013-11-03 04:24:00,
2013-11-02 23:30:00,38.0,34.2,30.13,WSW,250,0.0,0.0,86,0.00,FEW,,0.00,0.0,WeatherDisplay:10.37,2013-11-03 04:30:00,
2013-11-02 23:35:00,37.7,34.2,30.13,WSW,250,0.0,0.0,87,0.00,FEW,,0.00,0.0,WeatherDisplay:10.37,2013-11-03 04:35:00,
2013-11-02 23:40:00,37.7,34.2,30.13,WSW,250,0.0,0.0,87,0.00,FEW,,0.00,0.0,WeatherDisplay:10.37,2013-11-03 04:40:00,
2013-11-02 23:45:00,37.4,33.9,30.13,WSW,250,0.0,0.0,87,0.00,FEW,,0.00,0.0,WeatherDisplay:10.37,2013-11-03 04:45:00,
2013-11-02 23:51:00,37.5,34.0,30.12,WSW,250,0.0,0.0,87,0.00,FEW,,0.00,0.0,WeatherDisplay:10.37,2013-11-03 04:51:00,
2013-11-02 23:56:00,37.3,33.8,30.13,WSW,250,0.0,0.0,87,0.00,FEW,,0.00,0.0,WeatherDisplay:10.37,2013-11-03 04:56:00,